Location: Emblem
(62.4273°N, 6.4710°E)
Time: 19:10:20
(UTC+01:00)

Tiros 1 despin weight - All Passes

Search period start: 30 January 2023 00:00
Search period end: 09 February 2023 00:00
Orbit: 589 x 636 km, 48.2° (Epoch: 29 January)

Date Brightness Start Highest point End Pass type
(mag) Time Alt. Az. Time Alt. Az. Time Alt. Az.
30 Jan - 20:17:45 10° SSW 20:19:38 12° S 20:21:31 10° SSE visible
30 Jan - 21:58:02 10° SW 21:59:43 12° SSW 22:01:24 10° S visible
31 Jan - 20:31:49 10° SSW 20:33:55 13° S 20:36:01 10° SSE visible
31 Jan - 22:13:34 10° SSW 22:13:57 10° SSW 22:14:22 10° SSW visible
01 Feb - 19:06:35 10° S 19:08:08 12° SSE 19:09:40 10° SE visible
01 Feb - 20:46:12 10° SSW 20:48:12 13° S 20:50:12 10° SSE visible
02 Feb - 19:20:21 10° SSW 19:22:23 13° S 19:24:25 10° SSE visible
02 Feb - 21:00:56 10° SW 21:02:28 12° SSW 21:03:59 10° S visible
03 Feb - 17:55:53 10° S 17:56:37 10° SSE 17:57:20 10° SSE visible
03 Feb - 19:34:30 10° SSW 19:36:40 13° S 19:38:48 10° SSE visible
04 Feb - 18:09:02 10° SSW 18:10:50 12° SSE 18:12:39 10° SE visible
04 Feb - 19:48:58 10° SW 19:50:55 13° S 19:52:52 10° SSE visible
05 Feb - 18:22:57 10° SSW 18:25:06 13° S 18:27:14 10° SSE visible
05 Feb - 20:03:50 10° SSW 20:05:10 11° SSW 20:06:28 10° S visible
06 Feb - 16:57:59 10° S 16:59:17 11° SSE 17:00:36 10° SSE daylight
06 Feb - 18:37:11 10° SSW 18:39:21 13° S 18:41:31 10° SSE visible
07 Feb - 17:11:31 10° SSW 17:13:31 13° S 17:15:31 10° SE daylight
07 Feb - 18:51:43 10° SW 18:53:36 12° S 18:55:29 10° SSE visible
08 Feb - 17:25:31 10° SSW 17:27:46 14° S 17:29:59 10° SSE daylight
08 Feb - 19:06:48 10° SSW 19:07:49 11° SSW 19:08:49 10° S visible
